Location: Huntsville
(34.7300°N, 86.5860°W)
Time: 20:52:12
(UTC-05:00)

BlueWalker 3 - Visible Passes

Search period start: 15 June 2024 00:00
Search period end: 25 June 2024 00:00
Orbit: 480 x 494 km, 53.2° (Epoch: 15 June)

Date Brightness Start Highest point End Pass type
(mag) Time Alt. Az. Time Alt. Az. Time Alt. Az.
15 Jun 3.3 22:48:25 34° NNE 22:48:25 34° NNE 22:50:47 10° NE visible
16 Jun 3.7 20:42:04 10° SSE 20:43:43 13° ESE 20:45:22 10° E visible
16 Jun 2.4 22:17:47 10° WSW 22:21:28 56° NW 22:25:09 10° NE visible
16 Jun 5.4 23:59:51 10° NNW 00:00:19 10° NNW 00:00:47 10° NNW visible
17 Jun 4.1 04:56:04 10° NNW 04:59:24 30° NE 05:02:45 10° E visible
17 Jun 2.3 21:52:06 10° SW 21:55:48 62° NW 21:59:31 10° NE visible
17 Jun 5.4 23:33:40 10° NW 23:34:36 11° NNW 23:35:32 10° N visible
18 Jun 4.2 04:30:27 10° NNW 04:33:43 28° NE 04:37:00 10° E visible
18 Jun 2.2 21:26:24 10° SW 21:30:07 68° NW 21:33:51 10° NE visible
18 Jun 5.4 23:07:38 10° NW 23:08:52 11° NNW 23:10:07 10° N visible
19 Jun 4.2 04:04:49 10° NNW 04:08:01 26° NE 04:11:14 10° E visible
19 Jun 2.1 21:00:42 10° SW 21:04:26 74° NW 21:08:10 10° NE visible
19 Jun 5.4 22:41:39 10° NW 22:43:08 12° NNW 22:44:37 10° N visible
20 Jun 4.3 03:39:11 10° NNW 03:42:18 25° NE 03:45:26 10° E visible
20 Jun 2.0 20:34:58 10° SW 20:38:43 81° NW 20:42:29 10° NE visible
20 Jun 5.3 22:15:42 10° NW 22:17:23 13° NNW 22:19:05 10° N visible
21 Jun 4.4 03:13:32 10° NNW 03:16:35 23° NE 03:19:37 10° E visible
21 Jun 2.4 04:51:21 10° WNW 04:54:47 35° SW 04:58:13 10° SSE visible
21 Jun 5.2 21:49:46 10° WNW 21:51:38 13° NNW 21:53:30 10° N visible
22 Jun 4.4 02:47:53 10° NNW 02:50:50 22° NE 02:53:48 10° E visible
22 Jun 2.3 04:25:35 10° WNW 04:29:05 39° SW 04:32:35 10° SSE visible
22 Jun 5.1 21:23:50 10° WNW 21:25:52 14° NNW 21:27:55 10° N visible
23 Jun 4.5 02:22:13 10° NNW 02:25:05 20° NE 02:27:57 10° E visible
23 Jun 2.1 03:59:49 10° WNW 04:03:23 43° SW 04:06:55 10° SSE visible
23 Jun 5.0 20:57:54 10° WNW 21:00:06 15° NNW 21:02:17 10° N visible
24 Jun 4.5 01:56:33 10° NNW 01:59:19 19° NNE 02:00:33 17° ENE visible
24 Jun 4.1 03:34:03 10° WNW 03:34:39 14° WNW 03:34:39 14° WNW visible
24 Jun 5.0 20:31:59 10° WNW 20:34:19 16° NNW 20:36:39 10° N visible
